| time (UTC) | temp F | wind direction | speed MPH | gust MPH | rain 1hr in | rain 24hr in | rain mn in | humidity % | barometer mb |
| 20260904064503 | 74 | 108 | 8.0 | 16.0 | 0.00 | 0.00 | 0.00 | 22 | 1013.3 |
| 20260904063602 | 74 | 103 | 8.0 | 15.0 | 0.00 | 0.00 | 0.00 | 23 | 1013.1 |
| 20260904062702 | 74 | 105 | 7.0 | 15.0 | 0.00 | 0.00 | 0.00 | 23 | 1013.1 |
| 20260904061802 | 74 | 103 | 8.0 | 15.0 | 0.00 | 0.00 | 0.00 | 24 | 1012.9 |
| 20260904060924 | 74 | 100 | 7.0 | 15.0 | 0.00 | 0.00 | 0.00 | 25 | 1012.9 |
| 20260904060003 | 74 | 98 | 8.0 | 18.0 | 0.00 | 0.00 | 0.00 | 24 | 1012.9 |
| 20260904055402 | 74 | 93 | 8.0 | 18.0 | 0.00 | 0.00 | 0.00 | 25 | 1012.8 |
| 20260904054502 | 74 | 92 | 9.0 | 18.0 | 0.00 | 0.00 | 0.00 | 26 | 1012.8 |
| 20260904053602 | 74 | 93 | 8.0 | 14.0 | 0.00 | 0.00 | 0.00 | 26 | 1012.7 |
| 20260904052702 | 75 | 93 | 8.0 | 14.0 | 0.00 | 0.00 | 0.00 | 24 | 1012.8 |
| 20260904051802 | 75 | 93 | 8.0 | 16.0 | 0.00 | 0.00 | 0.00 | 24 | 1012.8 |
| 20260904050903 | 75 | 88 | 9.0 | 20.0 | 0.00 | 0.00 | 0.00 | 23 | 1012.8 |
| 20260904050003 | 76 | 85 | 12.0 | 20.0 | 0.00 | 0.00 | 0.00 | 24 | 1012.7 |
| 20260904045403 | 76 | 87 | 11.0 | 20.0 | 0.00 | 0.00 | 0.00 | 23 | 1012.8 |
| 20260904044502 | 76 | 87 | 11.0 | 20.0 | 0.00 | 0.00 | 0.00 | 24 | 1012.8 |
| 20260904043602 | 76 | 86 | 10.0 | 19.0 | 0.00 | 0.00 | 0.00 | 24 | 1012.7 |
| 20260904042702 | 75 | 87 | 8.0 | 15.0 | 0.00 | 0.00 | 0.00 | 26 | 1012.7 |
| 20260904041802 | 75 | 94 | 6.0 | 14.0 | 0.00 | 0.00 | 0.00 | 26 | 1012.8 |
| 20260904040902 | 75 | 91 | 8.0 | 12.0 | 0.00 | 0.00 | 0.00 | 27 | 1012.8 |
| 20260904040002 | 75 | 93 | 7.0 | 13.0 | 0.00 | 0.00 | 0.00 | 27 | 1012.6 |
| 20260904035402 | 75 | 95 | 6.0 | 13.0 | 0.00 | 0.00 | 0.00 | 29 | 1012.6 |
| 20260904034502 | 75 | 91 | 7.0 | 13.0 | 0.00 | 0.00 | 0.00 | 31 | 1012.6 |
| 20260904033603 | 76 | 89 | 7.0 | 13.0 | 0.00 | 0.00 | 0.00 | 30 | 1012.4 |
| 20260904032703 | 78 | 97 | 4.0 | 10.0 | 0.00 | 0.00 | 0.00 | 24 | 1012.5 |
| 20260904031802 | 78 | 128 | 6.0 | 13.0 | 0.00 | 0.00 | 0.00 | 18 | 1012.4 |
| 20260904030902 | 79 | 139 | 7.0 | 15.0 | 0.00 | 0.00 | 0.00 | 18 | 1012.2 |
| 20260904030002 | 78 | 143 | 7.0 | 18.0 | 0.00 | 0.00 | 0.00 | 18 | 1012.1 |
| 20260904025402 | 79 | 149 | 6.0 | 12.0 | 0.00 | 0.00 | 0.00 | 18 | 1012.0 |
| 20260904024503 | 79 | 158 | 8.0 | 19.0 | 0.00 | 0.00 | 0.00 | 18 | 1011.9 |
| 20260904023602 | 79 | 145 | 8.0 | 19.0 | 0.00 | 0.00 | 0.00 | 18 | 1011.9 |
| 20260904022702 | 79 | 140 | 8.0 | 15.0 | 0.00 | 0.00 | 0.00 | 18 | 1012.0 |
| 20260904021824 | 79 | 136 | 7.0 | 11.0 | 0.00 | 0.00 | 0.00 | 18 | 1011.9 |
| 20260904020903 | 79 | 131 | 7.0 | 15.0 | 0.00 | 0.00 | 0.00 | 18 | 1011.9 |
| 20260904020024 | 80 | 134 | 8.0 | 15.0 | 0.00 | 0.00 | 0.00 | 18 | 1011.8 |
| 20260904015402 | 80 | 133 | 8.0 | 11.0 | 0.00 | 0.00 | 0.00 | 17 | 1011.8 |
| 20260904014502 | 81 | 139 | 9.0 | 16.0 | 0.00 | 0.00 | 0.00 | 17 | 1011.9 |
| 20260904013602 | 81 | 134 | 9.0 | 20.0 | 0.00 | 0.00 | 0.00 | 17 | 1011.9 |
| 20260904012703 | 82 | 137 | 9.0 | 20.0 | 0.00 | 0.00 | 0.00 | 17 | 1011.9 |
| 20260904011803 | 82 | 133 | 10.0 | 23.0 | 0.00 | 0.00 | 0.00 | 17 | 1012.0 |
| 20260904010903 | 83 | 134 | 11.0 | 20.0 | 0.00 | 0.00 | 0.00 | 17 | 1012.1 |
| 20260904010023 | 83 | 135 | 10.0 | 20.0 | 0.00 | 0.00 | 0.00 | 18 | 1012.2 |
| 20260904005403 | 82 | 131 | 9.0 | 20.0 | 0.00 | 0.00 | 0.00 | 18 | 1012.2 |
| 20260904004502 | 82 | 135 | 9.0 | 19.0 | 0.00 | 0.00 | 0.00 | 18 | 1012.2 |
| 20260904003602 | 84 | 127 | 7.0 | 14.0 | 0.00 | 0.00 | 0.00 | 20 | 1012.3 |
| 20260904002703 | 84 | 118 | 9.0 | 15.0 | 0.00 | 0.00 | 0.00 | 18 | 1012.2 |
| 20260904001802 | 85 | 106 | 8.0 | 15.0 | 0.00 | 0.00 | 0.00 | 18 | 1012.2 |
| 20260904000902 | 85 | 101 | 6.0 | 14.0 | 0.00 | 0.00 | 0.00 | 17 | 1012.2 |
| 20260904000003 | 85 | 98 | 8.0 | 18.0 | 0.00 | 0.00 | 0.00 | 17 | 1012.2 |
| 20260903235423 | 85 | 95 | 11.0 | 23.0 | 0.00 | 0.00 | 0.00 | 16 | 1012.2 |
| 20260903234503 | 85 | 99 | 9.0 | 19.0 | 0.00 | 0.00 | 0.00 | 17 | 1012.2 |
| 20260903233603 | 85 | 100 | 7.0 | 18.0 | 0.00 | 0.00 | 0.00 | 16 | 1012.3 |
| 20260903232703 | 85 | 96 | 9.0 | 18.0 | 0.00 | 0.00 | 0.00 | 17 | 1012.4 |
| 20260903231802 | 85 | 94 | 10.0 | 21.0 | 0.00 | 0.00 | 0.00 | 15 | 1012.5 |
| 20260903230902 | 85 | 90 | 11.0 | 20.0 | 0.00 | 0.00 | 0.00 | 17 | 1012.6 |
| 20260903230002 | 85 | 90 | 10.0 | 21.0 | 0.00 | 0.00 | 0.00 | 17 | 1012.7 |
| 20260903225403 | 85 | 98 | 8.0 | 16.0 | 0.00 | 0.00 | 0.00 | 17 | 1012.8 |
| 20260903224502 | 85 | 90 | 11.0 | 21.0 | 0.00 | 0.00 | 0.00 | 16 | 1012.9 |
| 20260903190003 | 80 | 92 | 9.0 | 21.0 | 0.00 | 0.00 | 0.00 | 21 | 1016.2 |
| 20260903185403 | 80 | 96 | 9.0 | 19.0 | 0.00 | 0.00 | 0.00 | 20 | 1016.3 |
| 20260903184502 | 80 | 88 | 9.0 | 22.0 | 0.00 | 0.00 | 0.00 | 21 | 1016.4 |
| 20260903183602 | 80 | 88 | 9.0 | 22.0 | 0.00 | 0.00 | 0.00 | 21 | 1016.6 |
| 20260903182703 | 78 | 97 | 10.0 | 18.0 | 0.00 | 0.00 | 0.00 | 22 | 1016.8 |
| 20260903181802 | 78 | 100 | 10.0 | 19.0 | 0.00 | 0.00 | 0.00 | 20 | 1017.0 |
| 20260903180903 | 78 | 113 | 9.0 | 20.0 | 0.00 | 0.00 | 0.00 | 20 | 1017.1 |
| 20260903180002 | 78 | 108 | 8.0 | 16.0 | 0.00 | 0.00 | 0.00 | 23 | 1017.1 |
| 20260903175403 | 78 | 99 | 8.0 | 15.0 | 0.00 | 0.00 | 0.00 | 23 | 1017.3 |
| 20260903174523 | 78 | 92 | 9.0 | 15.0 | 0.00 | 0.00 | 0.00 | 22 | 1017.2 |
| 20260903173602 | 77 | 102 | 7.0 | 14.0 | 0.00 | 0.00 | 0.00 | 22 | 1017.3 |
| 20260903172703 | 76 | 92 | 9.0 | 21.0 | 0.00 | 0.00 | 0.00 | 21 | 1017.3 |
| 20260903171803 | 76 | 82 | 11.0 | 21.0 | 0.00 | 0.00 | 0.00 | 22 | 1017.3 |
| 20260903170902 | 76 | 87 | 9.0 | 16.0 | 0.00 | 0.00 | 0.00 | 21 | 1017.4 |
| 20260903170024 | 76 | 82 | 10.0 | 16.0 | 0.00 | 0.00 | 0.00 | 22 | 1017.5 |
| 20260903165402 | 75 | 85 | 9.0 | 14.0 | 0.00 | 0.00 | 0.00 | 22 | 1017.5 |
| 20260903164503 | 75 | 91 | 8.0 | 16.0 | 0.00 | 0.00 | 0.00 | 22 | 1017.4 |
| 20260903163603 | 74 | 89 | 9.0 | 16.0 | 0.00 | 0.00 | 0.00 | 22 | 1017.4 |
| 20260903162724 | 74 | 93 | 9.0 | 16.0 | 0.00 | 0.00 | 0.00 | 23 | 1017.5 |
| 20260903161803 | 74 | 92 | 9.0 | 16.0 | 0.00 | 0.00 | 0.00 | 23 | 1017.4 |
| 20260903160902 | 73 | 95 | 7.0 | 15.0 | 0.00 | 0.00 | 0.00 | 23 | 1017.4 |
| 20260903160002 | 73 | 100 | 8.0 | 16.0 | 0.00 | 0.00 | 0.00 | 22 | 1017.4 |
| 20260903155402 | 73 | 92 | 9.0 | 16.0 | 0.00 | 0.00 | 0.00 | 24 | 1017.5 |
| 20260903154502 | 72 | 91 | 8.0 | 16.0 | 0.00 | 0.00 | 0.00 | 26 | 1017.5 |
| 20260903153603 | 71 | 98 | 7.0 | 16.0 | 0.00 | 0.00 | 0.00 | 26 | 1017.5 |
| 20260903152702 | 71 | 100 | 7.0 | 12.0 | 0.00 | 0.00 | 0.00 | 27 | 1017.6 |
| 20260903151803 | 70 | 106 | 6.0 | 12.0 | 0.00 | 0.00 | 0.00 | 30 | 1017.6 |
| 20260903150903 | 68 | 115 | 4.0 | 8.0 | 0.00 | 0.00 | 0.00 | 33 | 1017.7 |
| 20260903150003 | 66 | 125 | 4.0 | 6.0 | 0.00 | 0.00 | 0.00 | 39 | 1017.7 |
| 20260903145403 | 65 | 124 | 4.0 | 6.0 | 0.00 | 0.00 | 0.00 | 36 | 1017.8 |
| 20260903144502 | 63 | 111 | 3.0 | 6.0 | 0.00 | 0.00 | 0.00 | 36 | 1017.7 |
| 20260903143602 | 62 | 99 | 3.0 | 6.0 | 0.00 | 0.00 | 0.00 | 37 | 1017.6 |
| 20260903142703 | 61 | 100 | 3.0 | 5.0 | 0.00 | 0.00 | 0.00 | 38 | 1017.6 |
| 20260903141802 | 59 | 100 | 3.0 | 5.0 | 0.00 | 0.00 | 0.00 | 41 | 1017.6 |
| 20260903140903 | 58 | 100 | 3.0 | 5.0 | 0.00 | 0.00 | 0.00 | 45 | 1017.6 |
| 20260903140003 | 57 | 100 | 3.0 | 5.0 | 0.00 | 0.00 | 0.00 | 43 | 1017.6 |
| 20260903135403 | 56 | 101 | 3.0 | 5.0 | 0.00 | 0.00 | 0.00 | 46 | 1017.6 |
| 20260903134503 | 56 | 92 | 4.0 | 5.0 | 0.00 | 0.00 | 0.00 | 46 | 1017.5 |
| 20260903133603 | 55 | 86 | 4.0 | 5.0 | 0.00 | 0.00 | 0.00 | 47 | 1017.5 |
| 20260903132702 | 54 | 86 | 2.0 | 5.0 | 0.00 | 0.00 | 0.00 | 45 | 1017.4 |
| 20260903131823 | 54 | 86 | 3.0 | 5.0 | 0.00 | 0.00 | 0.00 | 49 | 1017.2 |
| 20260903130903 | 55 | 86 | 2.0 | 4.0 | 0.00 | 0.00 | 0.00 | 47 | 1017.1 |
| 20260903130003 | 54 | 86 | 2.0 | 5.0 | 0.00 | 0.00 | 0.00 | 47 | 1016.9 |
| 20260903125402 | 54 | 86 | 2.0 | 5.0 | 0.00 | 0.00 | 0.00 | 47 | 1016.9 |
| 20260903124503 | 54 | 86 | 2.0 | 6.0 | 0.00 | 0.00 | 0.00 | 49 | 1016.8 |
| 20260903123603 | 54 | 88 | 2.0 | 6.0 | 0.00 | 0.00 | 0.00 | 51 | 1016.8 |
| 20260903122703 | 54 | 94 | 2.0 | 5.0 | 0.00 | 0.00 | 0.00 | 52 | 1016.8 |
| 20260903121802 | 55 | 93 | 4.0 | 5.0 | 0.00 | 0.00 | 0.00 | 50 | 1016.8 |
| 20260903120924 | 55 | 93 | 3.0 | 5.0 | 0.00 | 0.00 | 0.00 | 48 | 1016.8 |
| 20260903120003 | 56 | 93 | 1.0 | 4.0 | 0.00 | 0.00 | 0.00 | 46 | 1016.8 |
| 20260903115403 | 57 | 93 | 0.0 | 1.0 | 0.00 | 0.00 | 0.00 | 44 | 1016.7 |
| 20260903114503 | 57 | 93 | 1.0 | 4.0 | 0.00 | 0.00 | 0.00 | 42 | 1016.7 |
| 20260903113624 | 57 | 93 | 3.0 | 5.0 | 0.00 | 0.00 | 0.00 | 42 | 1016.7 |
| 20260903112703 | 58 | 105 | 4.0 | 6.0 | 0.00 | 0.00 | 0.00 | 43 | 1016.7 |
| 20260903111803 | 57 | 194 | 2.0 | 5.0 | 0.00 | 0.00 | 0.00 | 43 | 1016.6 |
| 20260903110903 | 57 | 194 | 0.0 | 1.0 | 0.00 | 0.00 | 0.00 | 42 | 1016.5 |
| 20260903110003 | 58 | 0 | 0.0 | 0.0 | 0.00 | 0.00 | 0.00 | 39 | 1016.6 |
| 20260903105424 | 58 | 0 | 0.0 | 0.0 | 0.00 | 0.00 | 0.00 | 38 | 1016.4 |
| 20260903104503 | 58 | 194 | 0.0 | 2.0 | 0.00 | 0.00 | 0.00 | 39 | 1016.4 |
| 20260903103603 | 58 | 194 | 2.0 | 5.0 | 0.00 | 0.00 | 0.00 | 38 | 1016.5 |
| 20260903101824 | 59 | 194 | 1.0 | 6.0 | 0.00 | 0.00 | 0.00 | 38 | 1016.3 |
| 20260903100903 | 59 | 194 | 2.0 | 6.0 | 0.00 | 0.00 | 0.00 | 36 | 1016.3 |
| 20260903100003 | 59 | 194 | 1.0 | 5.0 | 0.00 | 0.00 | 0.00 | 41 | 1016.3 |
| 20260903095403 | 59 | 194 | 2.0 | 6.0 | 0.00 | 0.00 | 0.00 | 42 | 1016.2 |
| 20260903094503 | 59 | 191 | 4.0 | 7.0 | 0.00 | 0.00 | 0.00 | 41 | 1016.2 |
| 20260903093603 | 59 | 192 | 3.0 | 7.0 | 0.00 | 0.00 | 0.00 | 45 | 1016.2 |
| 20260903092703 | 60 | 137 | 3.0 | 7.0 | 0.00 | 0.00 | 0.00 | 44 | 1016.1 |
| 20260903091802 | 61 | 52 | 3.0 | 6.0 | 0.00 | 0.00 | 0.00 | 41 | 1016.1 |
| 20260903090903 | 62 | 83 | 2.0 | 6.0 | 0.00 | 0.00 | 0.00 | 39 | 1016.1 |
| 20260903090003 | 63 | 103 | 1.0 | 5.0 | 0.00 | 0.00 | 0.00 | 40 | 1016.1 |
| 20260903085424 | 64 | 102 | 2.0 | 6.0 | 0.00 | 0.00 | 0.00 | 39 | 1016.0 |
| 20260903084503 | 64 | 103 | 3.0 | 7.0 | 0.00 | 0.00 | 0.00 | 36 | 1016.0 |
| 20260903083603 | 65 | 99 | 3.0 | 6.0 | 0.00 | 0.00 | 0.00 | 40 | 1016.0 |
| 20260903082703 | 66 | 92 | 3.0 | 6.0 | 0.00 | 0.00 | 0.00 | 42 | 1016.0 |
| 20260903081824 | 66 | 104 | 4.0 | 6.0 | 0.00 | 0.00 | 0.00 | 41 | 1016.1 |
| 20260903080903 | 67 | 115 | 4.0 | 10.0 | 0.00 | 0.00 | 0.00 | 40 | 1016.0 |
| 20260903080003 | 68 | 100 | 5.0 | 10.0 | 0.00 | 0.00 | 0.00 | 38 | 1016.0 |
| 20260903075403 | 69 | 97 | 4.0 | 10.0 | 0.00 | 0.00 | 0.00 | 37 | 1015.9 |
| 20260903074524 | 69 | 106 | 3.0 | 7.0 | 0.00 | 0.00 | 0.00 | 35 | 1015.9 |
| 20260903073624 | 70 | 97 | 6.0 | 11.0 | 0.00 | 0.00 | 0.00 | 34 | 1015.7 |
| 20260903072703 | 70 | 96 | 6.0 | 11.0 | 0.00 | 0.00 | 0.00 | 31 | 1015.7 |
| 20260903071824 | 70 | 102 | 5.0 | 9.0 | 0.00 | 0.00 | 0.00 | 32 | 1015.6 |
| 20260903070903 | 70 | 103 | 5.0 | 13.0 | 0.00 | 0.00 | 0.00 | 33 | 1015.5 |
| 20260903070003 | 69 | 92 | 7.0 | 13.0 | 0.00 | 0.00 | 0.00 | 33 | 1015.5 |
| 20260903065403 | 69 | 89 | 6.0 | 11.0 | 0.00 | 0.00 | 0.00 | 33 | 1015.5 |